H1 CPF 2 NER 2025 8 6 9 218 01 glonass131 H2 1301901 9131 39155 2025 8 6 0 0 0 2025 8 9 23 45 0 900 1 1 0 0 0 1 H9 10 0 60893 0.00000 0 -10135114.263 20523628.383 -11289724.272 10 0 60893 900.00000 0 -10744244.972 21591944.370 -8372404.625 10 0 60893 1800.00000 0 -11068104.996 22395519.758 -5292834.147 10 0 60893 2700.00000 0 -11139855.612 22887214.156 -2110763.053 10 0 60893 3600.00000 0 -11002016.646 23029561.853 1112162.810 10 0 60893 4500.00000 0 -10704433.880 22796413.862 4313588.375 10 0 60893 5400.00000 0 -10301954.082 22174123.912 7431643.292 10 0 60893 6300.00000 0 -9851905.919 21162230.422 10406121.308 10 0 60893 7200.00000 0 -9411492.358 19773607.352 13179623.611 10 0 60893 8100.00000 0 -9035203.220 18034078.489 15698645.752 10 0 60893 9000.00000 0 -8772355.135 15981511.473 17914589.062 10 0 60893 9900.00000 0 -8664860.589 13664428.758 19784679.016 10 0 60893 10800.00000 0 -8745318.139 11140192.012 21272774.730 10 0 60893 11700.00000 0 -9035502.704 8472833.365 22350055.705 10 0 60893 12600.00000 0 -9545318.651 5730621.051 22995573.820 10 0 60893 13500.00000 0 -10272259.725 2983457.546 23196660.743 10 0 60893 14400.00000 0 -11201399.518 300215.119 22949183.015 10 0 60893 15300.00000 0 -12305914.765 -2253883.403 22257639.346 10 0 60893 16200.00000 0 -13548122.150 -4619732.334 21135097.030 10 0 60893 17100.00000 0 -14880988.218 -6746558.497 19602966.878 10 0 60893 18000.00000 0 -16250052.316 -8593793.031 17690618.722 10 0 60893 18900.00000 0 -17595684.917 -10132521.757 15434842.365 10 0 60893 19800.00000 0 -18855588.982 -11346452.978 12879161.747 10 0 60893 20700.00000 0 -19967440.923 -12232360.949 10073013.204 10 0 60893 21600.00000 0 -20871560.692 -12799984.870 7070801.697 10 0 60893 22500.00000 0 -21513498.120 -13071385.995 3930851.891 10 0 60893 23400.00000 0 -21846424.970 -13079788.474 714273.827 10 0 60893 24300.00000 0 -21833229.421 -12867951.922 -2516234.643 10 0 60893 25200.00000 0 -21448221.601 -12486144.230 -5697624.424 10 0 60893 26100.00000 0 -20678374.888 -11989800.966 -8767745.020 10 0 60893 27000.00000 0 -19524047.439 -11436971.859 -11666581.128 10 0 60893 27900.00000 0 -17999150.748 -10885664.624 -14337449.473 10 0 60893 28800.00000 0 -16130756.087 -10391201.231 -16728129.917 10 0 60893 29700.00000 0 -13958154.234 -10003701.377 -18791906.502 10 0 60893 30600.00000 0 -11531407.688 -9765802.392 -20488496.087 10 0 60893 31500.00000 0 -8909456.769 -9710714.335 -21784845.038 10 0 60893 32400.00000 0 -6157860.165 -9860694.193 -22655777.592 10 0 60893 33300.00000 0 -3346266.040 -10226004.529 -23084483.110 10 0 60893 34200.00000 0 -545721.104 -10804400.611 -23062833.132 10 0 60893 35100.00000 0 2174068.589 -11581166.933 -22591523.086 10 0 60893 36000.00000 0 4747409.982 -12529700.259 -21680037.260 10 0 60893 36900.00000 0 7115116.827 -13612612.780 -20346439.440 10 0 60893 37800.00000 0 9226721.688 -14783306.911 -18616995.157 10 0 60893 38700.00000 0 11042315.465 -15987953.426 -16525634.750 10 0 60893 39600.00000 0 12533940.022 -17167787.887 -14113269.544 10 0 60893 40500.00000 0 13686478.845 -18261627.403 -11426976.047 10 0 60893 41400.00000 0 14498011.997 -19208501.059 -8519065.412 10 0 60893 42300.00000 0 14979624.188 -19950283.186 -5446057.320 10 0 60893 43200.00000 0 15154677.602 -20434219.213 -2267578.904 10 0 60893 44100.00000 0 15057583.187 -20615238.929 954789.647 10 0 60893 45000.00000 0 14732124.580 -20457961.343 4158700.514 10 0 60893 45900.00000 0 14229406.898 -19938308.646 7282232.295 10 0 60893 46800.00000 0 13605517.527 -19044663.194 10265070.592 10 0 60893 47700.00000 0 12918997.280 -17778520.433 13049653.607 10 0 60893 48600.00000 0 12228227.492 -16154611.471 15582262.288 10 0 60893 49500.00000 0 11588841.440 -14200490.481 17814035.914 10 0 60893 50400.00000 0 11051267.068 -11955603.801 19701895.432 10 0 60893 51300.00000 0 10658502.284 -9469878.363 21209358.674 10 0 60893 52200.00000 0 10444214.473 -6801886.212 22307233.450 10 0 60893 53100.00000 0 10431242.666 -4016658.907 22974176.428 10 0 60893 54000.00000 0 10630564.583 -1183239.525 23197107.835 10 0 60893 54900.00000 0 11040772.087 1627929.361 22971474.165 10 0 60893 55800.00000 0 11648078.119 4347676.419 22301353.276 10 0 60893 56700.00000 0 12426856.735 6910722.965 21199398.690 10 0 60893 57600.00000 0 13340696.120 9258148.380 19686622.356 10 0 60893 58500.00000 0 14343923.254 11339598.387 17792017.806 10 0 60893 59400.00000 0 15383539.159 13115144.842 15552028.429 10 0 60893 60300.00000 0 16401485.948 14556719.189 13009868.506 10 0 60893 61200.00000 0 17337152.316 15649058.638 10214707.732 10 0 60893 62100.00000 0 18130012.980 16390123.935 7220732.959 10 0 60893 63000.00000 0 18722290.897 16790969.426 4086103.923 10 0 60893 63900.00000 0 19061528.828 16875069.174 871822.548 10 0 60893 64800.00000 0 19102959.690 16677126.191 -2359462.093 10 0 60893 65700.00000 0 18811572.764 16241414.301 -5544689.029 10 0 60893 66600.00000 0 18163785.205 15619722.753 -8621635.165 10 0 60893 67500.00000 0 17148644.883 14868991.374 -11530153.127 10 0 60893 68400.00000 0 15768510.612 14048737.973 -14213370.608 10 0 60893 69300.00000 0 14039178.485 13218389.128 -16618825.256 10 0 60893 70200.00000 0 11989447.139 12434629.883 -18699510.631 10 0 60893 71100.00000 0 9660139.271 11748887.116 -20414810.806 10 0 60893 72000.00000 0 7102620.446 11205055.353 -21731303.895 10 0 60893 72900.00000 0 4376877.984 10837562.930 -22623417.966 10 0 60893 73800.00000 0 1549241.598 10669861.278 -23073926.363 10 0 60893 74700.00000 0 -1310157.388 10713401.308 -23074273.188 10 0 60893 75600.00000 0 -4130080.663 10967139.463 -22624723.556 10 0 60893 76500.00000 0 -6840917.817 11417592.916 -21734337.117 10 0 60893 77400.00000 0 -9377346.843 12039439.630 -20420767.053 10 0 60893 78300.00000 0 -11680809.499 12796635.707 -18709890.313 10 0 60893 79200.00000 0 -13701699.347 13644000.581 -16635278.187 10 0 60893 80100.00000 0 -15401172.982 14529201.005 -14237519.353 10 0 60893 81000.00000 0 -16752511.433 15395048.374 -11563410.168 10 0 60893 81900.00000 0 -17741978.003 16182011.270 -8665029.342 10 0 60893 82800.00000 0 -18369140.075 16830836.634 -5598716.073 10 0 60893 83700.00000 0 -18646644.999 17285169.120 -2423972.162 10 0 60893 84600.00000 0 -18599462.715 17494058.913 797690.267 10 0 60893 85500.00000 0 -18263629.757 17414253.499 4003933.183 10 0 60894 0.00000 0 -17684549.566 17012178.514 7132786.531 10 0 60894 900.00000 0 -16914921.485 16265525.673 10123831.114 10 0 60894 1800.00000 0 -16012386.696 15164383.184 12919344.702 10 0 60894 2700.00000 0 -15036988.519 13711861.694 15465396.518 10 0 60894 3600.00000 0 -14048553.265 11924190.546 17712866.620 10 0 60894 4500.00000 0 -13104099.595 9830280.054 19618374.150 10 0 60894 5400.00000 0 -12255383.069 7470767.162 21145098.204 10 0 60894 6300.00000 0 -11546676.780 4896582.461 22263477.199 10 0 60894 7200.00000 0 -11012879.332 2167095.821 22951774.568 10 0 60894 8100.00000 0 -10678028.135 -652085.364 23196500.720 10 0 60894 9000.00000 0 -10554279.777 -3491577.160 22992683.296 10 0 60894 9900.00000 0 -10641400.464 -6280840.516 22343980.043 10 0 60894 10800.00000 0 -10926789.004 -8950857.414 21262630.962 10 0 60894 11700.00000 0 -11386033.224 -11436753.205 19769248.884 10 0 60894 12600.00000 0 -11983978.843 -13680257.983 17892450.264 10 0 60894 13500.00000 0 -12676268.543 -15631905.543 15668330.793 10 0 60894 14400.00000 0 -13411289.060 -17252878.365 13139793.334 10 0 60894 15300.00000 0 -14132446.457 -18516420.796 10355738.743 10 0 60894 16200.00000 0 -14780675.098 -19408759.878 7370133.202 10 0 60894 17100.00000 0 -15297074.965 -19929493.407 4240968.631 10 0 60894 18000.00000 0 -15625565.364 -20091426.932 1029135.701 10 0 60894 18900.00000 0 -15715441.314 -19919864.847 -2202768.632 10 0 60894 19800.00000 0 -15523722.047 -19451384.216 -5391675.005 10 0 60894 20700.00000 0 -15017189.238 -18732142.532 -8475291.308 10 0 60894 21600.00000 0 -14174025.347 -17815791.215 -11393341.706 10 0 60894 22500.00000 0 -12984979.476 -16761084.142 -14088768.426 10 0 60894 23400.00000 0 -11454008.500 -15629284.146 -16508870.311 10 0 60894 24300.00000 0 -9598364.042 -14481479.444 -18606353.575 10 0 60894 25200.00000 0 -7448120.044 -13375925.876 -20340272.255 10 0 60894 26100.00000 0 -5045160.119 -12365529.642 -21676838.446 10 0 60894 27000.00000 0 -2441667.316 -11495578.746 -22590085.702 10 0 60894 27900.00000 0 301819.628 -10801820.135 -23062372.372 10 0 60894 28800.00000 0 3118700.922 -10308964.109 -23084715.505 10 0 60894 29700.00000 0 5938863.953 -10029678.562 -22656949.701 10 0 60894 30600.00000 0 8691377.434 -9964114.186 -21787709.242 10 0 60894 31500.00000 0 11307218.144 -10099978.632 -20494235.500 10 0 60894 32400.00000 0 13721916.232 -10413154.035 -18802015.235 10 0 60894 33300.00000 0 15878009.228 -10868829.162 -16744258.705 10 0 60894 34200.00000 0 17727203.577 -11423095.762 -14361229.596 10 0 60894 35100.00000 0 19232155.487 -12024939.403 -11699441.422 10 0 60894 36000.00000 0 20367799.373 -12618538.919 -8810737.444 10 0 60894 36900.00000 0 21122171.392 -13145776.156 -5751273.087 10 0 60894 37800.00000 0 21496696.993 -13548849.589 -2580421.326 10 0 60894 38700.00000 0 21505933.671 -13772881.642 640377.379 10 0 60894 39600.00000 0 21176782.682 -13768410.549 3848798.375 10 0 60894 40500.00000 0 20547205.186 -13493662.911 6982826.963 10 0 60894 41400.00000 0 19664498.361 -12916512.758 9981941.215 10 0 60894 42300.00000 0 18583204.636 -12016046.182 12788261.898 10 0 60894 43200.00000 0 17362741.715 -10783667.132 15347648.949 10 0 60894 44100.00000 0 16064851.898 -9223698.755 17610725.193 10 0 60894 45000.00000 0 14750976.076 -7353455.323 19533809.501 10 0 60894 45900.00000 0 13479660.400 -5202781.079 21079743.300 10 0 60894 46800.00000 0 12304101.981 -2813073.833 22218596.250 10 0 60894 47700.00000 0 11269934.210 -235831.752 22928238.782 10 0 60894 48600.00000 0 10413342.549 2469219.039 23194771.313 10 0 60894 49500.00000 0 9759588.414 5236341.571 23012802.112 10 0 60894 50400.00000 0 9322002.445 7996261.180 22385567.961 10 0 60894 51300.00000 0 9101489.647 10678795.389 21324894.197 10 0 60894 52200.00000 0 9086568.265 13215534.210 19850993.128 10 0 60894 53100.00000 0 9253942.541 15542461.680 17992102.506 10 0 60894 54000.00000 0 9569587.495 17602411.001 15783968.512 10 0 60894 54900.00000 0 9990302.476 19347251.409 13269180.608 10 0 60894 55800.00000 0 10465670.200 20739715.032 10496368.674 10 0 60894 56700.00000 0 10940340.320 21754786.064 7519275.935 10 0 60894 57600.00000 0 11356541.995 22380592.218 4395724.093 10 0 60894 58500.00000 0 11656719.200 22618758.878 1186490.057 10 0 60894 59400.00000 0 11786176.216 22484208.985 -2045883.887 10 0 60894 60300.00000 0 11695619.337 22004415.343 -5238322.521 10 0 60894 61200.00000 0 11343484.400 21218135.730 -8328467.178 10 0 60894 62100.00000 0 10697948.374 20173683.874 -11255915.864 10 0 60894 63000.00000 0 9738536.437 18926809.817 -13963427.445 10 0 60894 63900.00000 0 8457253.368 17538280.463 -16398063.838 10 0 60894 64800.00000 0 6859188.684 16071264.451 -18512245.574 10 0 60894 65700.00000 0 4962567.877 14588633.992 -20264698.089 10 0 60894 66600.00000 0 2798246.382 13150299.867 -21621268.726 10 0 60894 67500.00000 0 408667.100 11810694.028 -22555597.591 10 0 60894 68400.00000 0 -2153674.425 10616507.369 -23049628.941 10 0 60894 69300.00000 0 -4828191.922 9604778.675 -23093953.444 10 0 60894 70200.00000 0 -7548514.013 8801415.045 -22687975.604 10 0 60894 71100.00000 0 -10245035.888 8220204.938 -21839904.437 10 0 60894 72000.00000 0 -12847609.273 7862363.499 -20566569.249 10 0 60894 72900.00000 0 -15288257.743 7716626.725 -18893065.979 10 0 60894 73800.00000 0 -17503804.006 7759887.556 -16852242.867 10 0 60894 74700.00000 0 -19438300.131 7958344.012 -14484037.295 10 0 60894 75600.00000 0 -21045160.656 8269108.047 -11834678.375 10 0 60894 76500.00000 0 -22288911.559 8642204.732 -8955772.152 10 0 60894 77400.00000 0 -23146484.582 9022875.498 -5903288.358 10 0 60894 78300.00000 0 -23608005.748 9354086.983 -2736469.099 10 0 60894 79200.00000 0 -23677048.127 9579139.145 483318.992 10 0 60894 80100.00000 0 -23370341.187 9644262.800 3693766.935 10 0 60894 81000.00000 0 -22716951.468 9501097.886 6832817.531 10 0 60894 81900.00000 0 -21756970.785 9108949.236 9839849.239 10 0 60894 82800.00000 0 -20539768.152 8436726.324 12656828.198 10 0 60894 83700.00000 0 -19121878.933 7464486.799 15229407.781 10 0 60894 84600.00000 0 -17564619.087 6184520.039 17507956.298 10 0 60894 85500.00000 0 -15931523.071 4601925.797 19448494.964 10 0 60895 0.00000 0 -14285710.822 2734663.705 21013529.877 10 0 60895 900.00000 0 -12687290.720 613069.462 22172764.420 10 0 60895 1800.00000 0 -11190906.899 -1721141.420 22903677.745 10 0 60895 2700.00000 0 -9843528.207 -4216346.712 23191961.808 10 0 60895 3600.00000 0 -8682571.603 -6812906.894 23031806.635 10 0 60895 4500.00000 0 -7734436.376 -9445396.738 22426028.769 10 0 60895 5400.00000 0 -7013510.219 -12045089.668 21386039.179 10 0 60895 6300.00000 0 -6521689.161 -14542594.844 19931649.527 10 0 60895 7200.00000 0 -6248432.610 -16870539.927 18090718.311 10 0 60895 8100.00000 0 -6171352.898 -18966189.684 15898641.226 10 0 60895 9000.00000 0 -6257316.566 -20773892.178 13397692.948 10 0 60895 9900.00000 0 -6464013.093 -22247250.327 10636230.634 10 0 60895 10800.00000 0 -6741926.662 -23350926.964 7667772.461 10 0 60895 11700.00000 0 -7036628.879 -24062006.070 4549967.533 10 0 60895 12600.00000 0 -7291295.882 -24370850.774 1343476.373 10 0 60895 13500.00000 0 -7449342.697 -24281419.675 -1889216.249 10 0 60895 14400.00000 0 -7457061.755 -23811025.983 -5085032.294 10 0 60895 15300.00000 0 -7266151.417 -22989547.893 -8181549.730 10 0 60895 16200.00000 0 -6836024.354 -21858122.510 -11118243.721 10 0 60895 17100.00000 0 -6135794.705 -20467378.258 -13837693.132 10 0 60895 18000.00000 0 -5145856.555 -18875281.092 -16286726.283 10 0 60895 18900.00000 0 -3858983.973 -17144686.804 -18417481.194 10 0 60895 19800.00000 0 -2280903.664 -15340704.593 -20188357.614 10 0 60895 20700.00000 0 -430314.402 -13527985.222 -21564840.658 10 0 60895 21600.00000 0 1661648.484 -11768050.056 -22520179.054 10 0 60895 22500.00000 0 3952481.141 -10116775.050 -23035904.500 10 0 60895 23400.00000 0 6389866.326 -8622136.529 -23102182.292 10 0 60895 24300.00000 0 8913649.390 -7322313.681 -22717987.324 10 0 60895 25200.00000 0 11458151.091 -6244226.683 -21891103.343 10 0 60895 26100.00000 0 13954719.238 -5402570.244 -20637947.148 10 0 60895 27000.00000 0 16334411.483 -4799380.697 -18983222.993 10 0 60895 27900.00000 0 18530696.685 -4424151.806 -16959415.814 10 0 60895 28800.00000 0 20482062.061 -4254491.077 -14606134.999 10 0 60895 29700.00000 0 22134417.984 -4257285.607 -11969323.119 10 0 60895 30600.00000 0 23443201.437 -4390325.210 -9100346.441 10 0 60895 31500.00000 0 24375092.195 -4604311.850 -6054986.040 10 0 60895 32400.00000 0 24909272.526 -4845168.654 -2892349.858 10 0 60895 33300.00000 0 25038180.430 -5056549.967 326272.836 10 0 60895 34200.00000 0 24767727.658 -5182446.162 3538592.386 10 0 60895 35100.00000 0 24116975.909 -5169773.696 6682512.715 10 0 60895 36000.00000 0 23117286.819 -4970842.137 9697316.155 10 0 60895 36900.00000 0 21810982.692 -4545595.514 12524817.446 10 0 60895 37800.00000 0 20249574.645 -3863535.104 15110466.291 10 0 60895 38700.00000 0 18491632.013 -2905244.073 17404378.994 10 0 60895 39600.00000 0 16600381.035 -1663450.849 19362281.229 10 0 60895 40500.00000 0 14641131.385 -143586.893 20946345.691 10 0 60895 41400.00000 0 12678635.729 1636185.031 22125910.205 10 0 60895 42300.00000 0 10774489.963 3645474.641 22878063.824 10 0 60895 43200.00000 0 8984680.094 5842681.182 23188090.492 10 0 60895 44100.00000 0 7357375.794 8176484.238 23049762.028 10 0 60895 45000.00000 0 5931061.008 10587749.570 22465474.353 10 0 60895 45900.00000 0 4733078.583 13011774.212 21446223.284 10 0 60895 46800.00000 0 3778649.451 15380780.834 20011418.655 10 0 60895 47700.00000 0 3070407.941 17626560.432 18188538.184 10 0 60895 48600.00000 0 2598473.830 19683155.539 16012625.245 10 0 60895 49500.00000 0 2341059.750 21489473.372 13525637.623 10 0 60895 50400.00000 0 2265590.262 22991720.050 10775657.416 10 0 60895 51300.00000 0 2330287.195 24145553.376 7815975.234 10 0 60895 52200.00000 0 2486155.691 24917862.406 4704064.899 10 0 60895 53100.00000 0 2679287.712 25288096.858 1500467.754 10 0 60895 54000.00000 0 2853385.387 25249087.949 -1732391.794 10 0 60895 54900.00000 0 2952396.250 24807323.506 -4931435.725 10 0 60895 55800.00000 0 2923146.751 23982663.518 -8034181.381 10 0 60895 56700.00000 0 2717859.781 22807506.489 -10979983.657 10 0 60895 57600.00000 0 2296446.356 21325440.877 -13711243.773 10 0 60895 58500.00000 0 1628471.137 19589438.526 -16174558.542 10 0 60895 59400.00000 0 694705.419 17659667.098 -18321785.303 10 0 60895 60300.00000 0 -511800.768 15601015.182 -20110999.684 10 0 60895 61200.00000 0 -1985174.776 13480436.210 -21507325.893 10 0 60895 62100.00000 0 -3706729.886 11364224.951 -22483622.377 10 0 60895 63000.00000 0 -5645526.372 9315342.827 -23021009.124 10 0 60895 63900.00000 0 -7759461.229 7390905.702 -23109226.659 10 0 60895 64800.00000 0 -9996839.911 5639940.075 -22746820.563 10 0 60895 65700.00000 0 -12298362.950 4101501.436 -21941149.281 10 0 60895 66600.00000 0 -14599442.824 2803232.388 -20708216.704 10 0 60895 67500.00000 0 -16832752.830 1760418.849 -19072334.632 10 0 60895 68400.00000 0 -18930900.417 975580.954 -17065623.586 10 0 60895 69300.00000 0 -20829112.724 438612.514 -14727363.531 10 0 60895 70200.00000 0 -22467822.210 127459.494 -12103208.839 10 0 60895 71100.00000 0 -23795045.138 9305.487 -9244284.152 10 0 60895 72000.00000 0 -24768454.842 42211.109 -6206179.908 10 0 60895 72900.00000 0 -25357065.077 177135.661 -3047867.780 10 0 60895 73800.00000 0 -25542455.341 360254.026 169442.532 10 0 60895 74700.00000 0 -25319489.359 535470.084 3383483.016 10 0 60895 75600.00000 0 -24696499.071 647020.467 6532121.174 10 0 60895 76500.00000 0 -23694928.484 642059.395 9554545.767 10 0 60895 77400.00000 0 -22348453.811 473116.735 12392422.797 10 0 60895 78300.00000 0 -20701617.511 100327.169 14991000.982 10 0 60895 79200.00000 0 -18808033.317 -506661.881 17300147.276 10 0 60895 80100.00000 0 -16728236.415 -1367182.530 19275294.337 10 0 60895 81000.00000 0 -14527266.909 -2488501.464 20878283.659 10 0 60895 81900.00000 0 -12272085.139 -3865281.514 22078089.820 10 0 60895 82800.00000 0 -10028924.018 -5479573.101 22851413.302 10 0 60895 83700.00000 0 -7860685.923 -7301337.588 23183131.347 10 0 60895 84600.00000 0 -5824489.978 -9289483.140 23066598.487 10 0 60895 85500.00000 0 -3969469.703 -11393372.966 22503790.551 10 0 60896 0.00000 0 -2334911.336 -13554746.289 21505288.463 10 0 60896 900.00000 0 -948808.800 -15709976.632 20090099.847 10 0 60896 1800.00000 0 173102.298 -17792573.567 18285321.136 10 0 60896 2700.00000 0 1027793.441 -19735830.014 16125642.448 10 0 60896 3600.00000 0 1624852.516 -21475503.462 13652703.402 10 0 60896 4500.00000 0 1985856.749 -22952420.939 10914309.414 10 0 60896 5400.00000 0 2143233.822 -24114898.150 7963521.596 10 0 60896 6300.00000 0 2138657.735 -24920870.158 4857636.283 10 0 60896 7200.00000 0 2021046.147 -25339641.970 1657073.199 10 0 60896 8100.00000 0 1844243.693 -25353182.838 -1575806.253 10 0 60896 9000.00000 0 1664489.931 -24956906.952 -4777926.867 10 0 60896 9900.00000 0 1537780.713 -24159904.905 -7886748.300 10 0 60896 10800.00000 0 1517237.071 -22984613.954 -10841508.209 10 0 60896 11700.00000 0 1650595.997 -21465939.434 -13584433.254 10 0 60896 12600.00000 0 1977932.595 -19649863.667 -16061891.807 10 0 60896 13500.00000 0 2529713.200 -17591601.195 -18225463.476 10 0 60896 14400.00000 0 3325264.714 -15353378.971 -20032902.511 10 0 60896 15300.00000 0 4371727.118 -13001936.441 -21448974.651 10 0 60896 16200.00000 0 5663534.958 -10605852.455 -22446150.091 10 0 60896 17100.00000 0 7182450.423 -8232813.001 -23005138.714 10 0 60896 18000.00000 0 8898146.600 -5946935.907 -23115257.398 10 0 60896 18900.00000 0 10769315.660 -3806265.479 -22774623.087 10 0 60896 19800.00000 0 12745254.263 -1860542.059 -21990169.173 10 0 60896 20700.00000 0 14767858.170 -149339.077 -20777486.480 10 0 60896 21600.00000 0 16773940.917 1299356.205 -19160493.821 10 0 60896 22500.00000 0 18697778.148 2470061.411 -17170946.383 10 0 60896 23400.00000 0 20473770.072 3360181.981 -14847793.414 10 0 60896 24300.00000 0 22039110.232 3979845.885 -12236399.376 10 0 60896 25200.00000 0 23336349.108 4351200.843 -9387645.166 10 0 60896 26100.00000 0 24315746.076 4507207.122 -6356928.066 10 0 60896 27000.00000 0 24937312.732 4489979.831 -3203080.620 10 0 60896 27900.00000 0 25172463.915 4348752.947 12770.179 10 0 60896 28800.00000 0 25005209.458 4137552.483 3228381.269 10 0 60896 29700.00000 0 24432838.964 3912677.631 6381587.093 10 0 60896 30600.00000 0 23466072.950 3730095.975 9411486.164 10 0 60896 31500.00000 0 22128675.608 3642861.802 12259598.913 10 0 60896 32400.00000 0 20456546.325 3698664.952 14870976.040 10 0 60896 33300.00000 0 18496328.135 3937611.878 17195237.849 10 0 60896 34200.00000 0 16303590.556 4390330.704 19187526.396 10 0 60896 35100.00000 0 13940661.236 5076478.738 20809354.064 10 0 60896 36000.00000 0 11474194.631 6003714.418 22029333.945 10 0 60896 36900.00000 0 8972576.384 7167176.939 22823779.357 10 0 60896 37800.00000 0 6503268.562 8549496.343 23177161.856 10 0 60896 38700.00000 0 4130203.289 10121335.507 23082419.274 10 0 60896 39600.00000 0 1911330.652 11842443.989 22541107.487 10 0 60896 40500.00000 0 -103579.176 13663182.830 21563391.973 10 0 60896 41400.00000 0 -1874789.458 15526460.073 20167877.682 10 0 60896 42300.00000 0 -3374029.373 17369999.424 18381278.354 10 0 60896 43200.00000 0 -4585445.456 19128850.184 16237929.170 10 0 60896 44100.00000 0 -5506031.359 20738035.672 13779149.545 10 0 60896 45000.00000 0 -6145516.541 22135230.508 11052465.898 10 0 60896 45900.00000 0 -6525716.984 23263354.725 8110707.293 10 0 60896 46800.00000 0 -6679373.710 24072974.980 5010989.863 10 0 60896 47700.00000 0 -6648526.900 24524410.096 1813608.874 10 0 60896 48600.00000 0 -6482493.679 24589449.835 -1419140.186 10 0 60896 49500.00000 0 -6235535.291 24252611.554 -4624187.850 10 0 60896 50400.00000 0 -5964313.459 23511878.731 -7738938.960 10 0 60896 51300.00000 0 -5725245.550 22378887.542 -10702516.691 10 0 60896 52200.00000 0 -5571873.092 20878551.383 -13456975.705 10 0 60896 53100.00000 0 -5552358.110 19048137.842 -15948458.260 10 0 60896 54000.00000 0 -5707216.361 16935836.450 -18128268.299 10 0 60896 54900.00000 0 -6067386.307 14598877.850 -19953840.488 10 0 60896 55800.00000 0 -6652717.933 12101284.544 -21389583.609 10 0 60896 56700.00000 0 -7470947.030 9511349.197 -22407580.861 10 0 60896 57600.00000 0 -8517199.231 6898948.019 -22988132.999 10 0 60896 58500.00000 0 -9774044.886 4332803.410 -23120133.936 10 0 60896 59400.00000 0 -11212101.898 1877811.609 -22801272.346 10 0 60896 60300.00000 0 -12791160.019 -407452.357 -22038056.578 10 0 60896 61200.00000 0 -14461777.787 -2472948.458 -20845664.043 10 0 60896 62100.00000 0 -16167283.332 -4279012.887 -19247619.827 10 0 60896 63000.00000 0 -17846093.453 -5797751.912 -17275312.699 10 0 60896 63900.00000 0 -19434252.324 -7013932.928 -14967359.785 10 0 60896 64800.00000 0 -20868082.466 -7925338.882 -12368833.977 10 0 60896 65700.00000 0 -22086836.544 -8542574.999 -9530370.566 10 0 60896 66600.00000 0 -23035239.120 -8888339.651 -6507171.662 10 0 60896 67500.00000 0 -23665812.712 -8996193.521 -3357928.532 10 0 60896 68400.00000 0 -23940892.115 -8908881.713 -143683.193 10 0 60896 69300.00000 0 -23834244.325 -8676281.642 3073348.630 10 0 60896 70200.00000 0 -23332228.168 -8353064.441 6230970.832 10 0 60896 71100.00000 0 -22434446.922 -7996168.843 9268194.299 10 0 60896 72000.00000 0 -21153868.218 -7662193.573 12126396.595 10 0 60896 72900.00000 0 -19516407.243 -7404817.013 14750433.134 10 0 60896 73800.00000 0 -17559991.064 -7272351.247 17089680.245 10 0 60896 74700.00000 0 -15333142.692 -7305531.687 19098991.916 10 0 60896 75600.00000 0 -12893142.747 -7535633.612 20739553.739 10 0 60896 76500.00000 0 -10303843.295 -7982993.506 21979619.337 10 0 60896 77400.00000 0 -7633222.312 -8655996.692 22795116.524 10 0 60896 78300.00000 0 -4950777.521 -9550573.941 23170112.450 10 0 60896 79200.00000 0 -2324864.829 -10650229.277 23097129.151 10 0 60896 80100.00000 0 179910.889 -11926599.769 22577303.060 10 0 60896 81000.00000 0 2505146.722 -13340526.531 21620384.475 10 0 60896 81900.00000 0 4600834.302 -14843595.274 20244575.304 10 0 60896 82800.00000 0 6427203.799 -16380085.136 18476206.131 10 0 60896 83700.00000 0 7956142.736 -17889247.284 16349256.326 10 0 60896 84600.00000 0 9172129.858 -19307820.340 13904723.874 10 0 60896 85500.00000 0 10072643.866 -20572678.831 11189854.603 99